Latest METARs, TAFs and NOTAMs for VTSP


---------------------------------------------------------------------------
	(OBSERVATIONS)
VTSP 211700Z 29007KT 250V330 9999 FEW022 28/23 Q1013 NOSIG=
VTSP 211630Z 28009KT 260V320 9999 FEW022 28/23 Q1013 NOSIG=
VTSP 211600Z 28010KT 260V320 9999 FEW022 28/23 Q1013 NOSIG=
VTSP 211530Z 28009KT 250V310 9999 FEW022 28/23 Q1013 NOSIG=
VTSP 211500Z 28008KT 9999 FEW022 28/23 Q1014 NOSIG=
VTSP 211430Z 28010KT 250V320 9999 FEW022 28/23 Q1013 NOSIG=
---------------------------------------------------------------------------
	(TERMINAL AREA FORECAST)
VTSP 211100Z 2112/2218 29008KT 9999 SCT025=
---------------------------------------------------------------------------
	(NOTAMS)


VTSP A0605/17 REVISION OF AERODROME CHART AIRCRAFT PARKING/DOCKING
    CHART AND AERODROME GROUND MOVEMENT CHART OF PHUKET INTERNATIONAL
    AIRPORT AIRCRAFT STAND COORDINATES (WGS84) AMEND AS FLW:
    NR 11 080635.59N 981810.53E TO READ 080623.41N 981818.30E
    NR 12L 080612.70N 981816.58E TO READ 080621.70N 981816.57E
    REF AIRAC AIP SUP A6/17. 27 APR 00:01 2017 UNTIL PERM. CREATED:
    27 MAR 08:29 2017

VTSP A1519/17 OBST MOBILE CRANE ERECTED AS FLW 1. 080630.22N0981819.84E
    (AT ACFT STAND NR 8) HGT 98FT 2. 080627.95N0981819.25E (AT
    ACFT STAND NR 9) HGT 98FT 3. 080625.69N0981818.67E (AT ACFT
    STAND NR 10) HGT 98FT. DLY 0100-1000, 12 JUL 08:30 2017 UNTIL
    31 OCT 10:00 2017. CREATED: 12 JUL 08:32 2017

VTSP A1597/17 BIRD CONCENTRATION IN THE VICINITY OF AD. 19 JUL
    02:55 2017 UNTIL 27 OCT 02:00 2017. CREATED: 19 JUL 02:57
    2017

VTSP A1656/17 OBST ERECTED DETAIL AS FLW : 1. TREE AT 080649.3N0981808.52E
    DIST 65M BEFORE THR RWY 09, 200M NORTH OF EXTENDED RCL, HGT
    100FT 2. TREE AT 080652.75N0981835.01E DIST 730M BEYOND THR
    RWY 09, 265M NORTH OF RCL, HGT 50FT 3. TREE AT 080638.8N0981843.41E
    DIST 930M BEYOND THR RWY 09, 210M SOUTH OF RCL, HGT 105FT
    4. ELECTRIC POLE AT 080646.01N0981941.19E DIST 270M BEYOND
    THR RWY 27, 160M SOUTH OF RCL, HGT 42FT. 24 JUL 09:20 2017
    UNTIL 24 OCT 08:00 2017. CREATED: 24 JUL 09:28 2017

VTSP A1710/17 CLOSURE OF TAXIWAY C AND D AT PHUKET INTERNATIONAL
    AIRPORT AMD AS FLW: 1. PROCEDURES 1.1 DEPARTURES: ACFT SHALL
    TAXI ENTERING THE RWY 09/27 VIA TWY A, B, E, F OR G 1.2 ARRIVALS:
    RWY 27 IN USED: ACFT SHALL BE VACATING RWY VIA TWY A, B OR
    E RWY 09 IN USED: ACFT SHALL BE VACATING RWY VIA TWY F OR
    G EXCEPT ACFT CODE A, B AND HELICOPTER REF AIRAC AIP SUPPLEMENT
    A33/16. 30 JUL 08:05 2017 UNTIL 01 NOV 10:00 2017. CREATED:
    30 JUL 08:07 2017

VTSP A1718/17 LOCAL AERODROME REGULATIONS TO PREVENT RWY PAVEMENT
    DAMAGE WHICH MAY RESULT IN THE CLOSURE OF THE AERODROME IF
    SUCH DAMAGE IS SERVE, ACFT CODE LETTER C OR HIGHER SHALL
    MAKE A 180 DEG TURN AT THE RWY TURN PADS LOCATED ON BOTH
    END OF RWY. 30 JUL 13:20 2017 UNTIL 01 NOV 10:00 2017. CREATED:
    30 JUL 13:23 2017

VTSP A1930/17 RWY 09/27 CLSD DUE TO WIP. DLY 1900-2359, 10 OCT
    19:00 2017 UNTIL 21 OCT 23:59 2017. CREATED: 21 AUG 05:28
    2017

VTSP A1968/17 OBST MOBILE CRANE ERECTED AT 080627.13N0981823.80E
    HGT 138FT AGL RDL 41.9M BRG143 FM THR RWY 09 MARKED LGTD.
    24 AUG 06:00 2017 UNTIL 24 NOV 05:00 2017. CREATED: 24 AUG
    06:02 2017

VTSP A2040/17 DUE TO AIR TRAFFIC CONTROL TOWER RENOVATION AND
    AERODROME CONTROL SERVICE MOVE TO OPERATE IN TEMPORARY CONTROL
    ROOM WITH LIMITED VISION BETWEEN RADIAL R110-R250 PUT DVOR,
    ALL AIRCRAFT MAY EXPERIENCE SOME INCONVENIENCES, ESPECIALLY
    AS USING AERODROME TRAFFIC CIRCUIT NORTH ONLY FOR LANDING,
    OVERFLYING AND TRAINING PURPOSE, RWY 09 BY ENTERING LEFT
    TRAFFIC CIRCUIT AND RWY 27 BY ENTERING RIGHT TRAFFIC CIRCUIT.
    30 AUG 02:15 2017 UNTIL 30 NOV 11:30 2017. CREATED: 30 AUG
    02:18 2017

VTSP A2041/17 FOR GROUND MANAGEMENT PROCEDURE IN ORDER TO FACILITATE
    THE FLOW OF DEPARTING AIRCRAFT AT PHUKET INTERNATIONAL AIRPORT.
    THE CLEARANCE DELIVERY CONTROL IS ESTABLISHED FOR TRIAL OPERATION
    TO ISSUE ATC CLEARANCE FOR ALL AIRCRAFT, OTHER THAN VFR DOMESTIC
    FLIGHT. THE DETAILS ARE AS FOLLOW: 1. UNIT PROVIDING SERVICE
    : PHUKET DELIVERY CONTROL 2. SERVICE DESIGNATOR : CDC 3.
    CALL SIGN : PHUKET DELIVERY 4. FREQUENCY : 118.55 MHZ 5.
    OPERATION HOURS : H24 6. ATC CLEARANCE PROCEDURES : 6.1 PILOTS
    OF ALL AIRCRAFT, OTHER THAN VFR DOMESTIC FLIGHT, SHALL CONTACT
    PHUKET DELIVERY CONTROL 5 MINUTES PRIOR TO START-UP TO REQUEST
    ATC CLEARANCE, AS APPROPRIATE INFORMATION, OF THE FOLLOWING
    : A. AIRCRAFT CALL SIGN B. TYPE OF AIRCRAFT AND CATEGORY,
    IF HEAVY C. PARKING STAND NUMBER/LOCATION D. IDENTIFIED OF
    THE LATEST ATIS RECEIVED E. DESTINATION F. PROPOSED FLIGHT
    LEVEL, IF IT IS DIFFERENT FROM THE FILED FLIGHT PLAN END
    PART 1 OF 2. 30 AUG 02:30 2017 UNTIL 30 NOV 11:30 2017. CREATED:
    30 AUG 02:42 2017

VTSP A2041/17 6.2 UPON RECEIPT OF THE ATC CLEARANCE THE PILOT
    SHALL READ BACK THE FOLLOWING INFORMATION : A. AIRCRAFT CALL
    SIGN B. DESTINATION C. SID AND ROUTE D. LEVEL E. TRANSPONDER
    CODE, AND F. ANY RESTRICTION 6.3 PILOTS SHALL CONTACT PHUKET
    GROUND CONTROL ON FREQUENCY 121.9 MHZ FOR START-UP AND PUSHBACK
    AFTER ATC CLEARANCE HAS BEEN RECEIVED 7. WHEN WEATHER CONDITION
    BELOW VMC, ALL OF VFR OPERATIONS ON AND IN THE VICINITY OF
    PHUKET AERODROME MAY BE SUSPENDED BY PHUKET TOWER OR PHUKET
    APPROACH, IF THE PILOT REQUEST SVFR, SHALL CONTACT PHUKET
    DELIVERY CONTROL FOR SVFR CLEARANCE 8.COMMUNICATION FAILURE
    PROCEDURE: IF UNABLE CONTACT PHUKET DELIVERY CONTROL, ALL
    AIRCRAFT SHALL CONTACT PHUKET GROUND CONTROL ON FREQUENCY
    121.9 MHZ TO REQUEST ATC CLEARANCE END PART 2 OF 2. 30 AUG
    02:30 2017 UNTIL 30 NOV 11:30 2017. CREATED: 30 AUG 02:42
    2017

VTSP A2319/17 VISUAL DOCKING GUIDANCE SYSTEM (VDGS) ALL ACFT
    STAND NOT AVBL FOR ACFT TYPE A350-900 AND B787-900 RMK/ACFT
    HAVE TO FLW MARSHALLING SIGNALS STRICTLY. 22 SEP 04:50 2017
    UNTIL 22 DEC 05:00 2017. CREATED: 22 SEP 04:56 2017

VTSP A2351/17 ACFT STAND NR 8 NR 9 AND NR 10 CLSD. 26 SEP 05:23
    2017 UNTIL 26 NOV 16:59 2017. CREATED: 26 SEP 05:26 2017

VTSP A2440/17 VISUAL DOCKING GUIDANCE SYSTEM (VDGS) ACFT STAND
    NR 5 6 7 AND 31 U/S RMK/ACFT HAVE TO FLW MARSHALLING SIGNALS
    STRICTLY. 04 OCT 01:00 2017 UNTIL 04 JAN 01:00 2018. CREATED:
    04 OCT 01:05 2017

VTSP A2475/09 C) 5 NM RADAR SEPARATION BETWEEN IFR AND VFR AIRCRAFT.
    D) BETWEEN VFR AIRCRAFT ? TRAFFIC ADVISORIES AND AS APPROPRIATE
    SAFETY ALERT, AND ALSO INFORMATION TO ENABLE THEM TO FIT
    INTO THE LANDING SEQUENCE. - SSR RADAR APPROACH CONTROL SERVICE
    TO AIRCRAFT PROCEEDING TO PHUKET OR KRABI IN THIS PROGRAMME
    WILL BE TERMINATED AT A SUFFICIENT DISTANCE TO ALLOW TIME
    TO CHANGE TO THE APPROPRIATE TOWER FREQUENCY. -RADAR TECHNICAL
    DETIALS AND COVERAGE A) SECONDARY SURVEILLANCE RADAR - STATION
    : AT BANG DUK HILL PHUKET POSITION 080801.6167 N 0981946.5493
    E - RANGE : 250 NM WITH FOLLOWING LIMITATIONS: - SCAN RATE
    : 12 RPM B) VERTICAL COVERAGE 1) ALTITUDE 3 000 FEET WITHIN
    56 NM 2) ALTITUDE 4 000 FEET WITHIN 56 NM 3) ALTITUDE 6 000
    FEET WITHIN 99 NM 4) ALTITUDE 8 000 FEET WITHIN 106 NM 5)
    ALTITUDE 11 000 FEET WITHIN 119 NM C) HOURS OF OPERATION
    HOURS OF OPERATION WILL BE 24 HOURS WITH THE EXCEPTION OF
    SCHEDULED PREVENTIVE MAINTENANCE PERIOD: THE THIRD FRIDAY
    OF EACH MONTH FROM 1230-1500 UTC PART 4 OF 4 PARTS. 19 OCT
    01:37 2009 UNTIL PERM. CREATED: 19 OCT 01:41 2009

VTSP A2586/17 ACFT STAND NR 5 CLSD. 21 OCT 16:00 2017 UNTIL 21
    OCT 19:00 2017. CREATED: 20 OCT 05:00 2017

VTSP G7354/17 GPS RAIM PREDICTION FOR: TSO-C129 FAULT DETECTION
    NO GPS RAIM OUTAGES TSO-C146A FAULT DETECTION ONLY NO GPS
    RAIM OUTAGES TSO-C146A FAULT DETECTION WITH EXCLUSION 1710211202/1710211211
    1710211413/1710211422 1710221158/1710221207 1710221409/1710221418
    GPS RAIM UNAVAILABLE FOR RNP APPROACH. 21 OCT 00:28 2017
    UNTIL 22 OCT 23:59 2017. CREATED: 21 OCT 00:29 2017

---------------------------------------------------------------------------